Location: Unspecified
(41.1850°N, 73.2650°W)
Time: 02:48:41
(UTC+00:00)

SL-08 R/B - Pass Details

Date: 21 March 2026
Orbit: 946 x 992 km, 83.0° (Epoch: 13 April)

Event Time Altitude Azimuth Distance (km) Brightness Sun altitude
Rises 02:53:17 0° 243° (WSW) 3,611 7.7 -39.6°
Reaches altitude 10° 02:57:36 10° 272° (W) 2,667 7.2 -40.2°
Maximum altitude 02:59:59 12° 296° (WNW) 2,501 7.2 -40.4°
Drops below altitude 10° 03:02:23 10° 319° (NW) 2,673 7.5 -40.7°
Sets 03:06:45 0° 349° (N) 3,626 8.2 -41.3°
